You are not logged in, Click here to log in
ICAO: KSFO Country: 舊金山市南方大約13英里
Latitude: 37.6213 Longitude: -122.379
Total Arrivals: 27 Total Departures: 24
Latest Arrival: A7U24 (PHNL-KSFO)Jason. Li Latest Departure: VX1946 (KSFO-KLAX)Jason. Li
Scenery:
METAR : KSFO 180656Z 18007KT 10SM CLR 17/12 A2981 RMK AO2 SLP095 T01720117

舊金山國際機場SFO